OPS 4682 DEB, 38383

Orbit data source: Space-Track

OPS 4682 DEB, 38383 is space debris in LEO originally from a launch on Sat, 03 Apr 1965 UTC launched from the Air Force Western Test Range (AFWTR). Debris objects in space refer to the collection of defunct objects orbiting the Earth. Examples of debris include non-operational satellites, rocket bodies, and fragments generated from explosions, collisions, or faulty payload assembly.

Loading next visibility...
Identifier
38383, 1965-027CL
Orbit
LEO
Country
Flag of USUS
Related business
Manufacturer
Unknown
Mission
Spacecraft
Bus & Motor
Unknown
Mass
Unknown
Launch date (UTC)
1965-04-03 (61 years ago)
Launch vehicle
Unknown
Launch site
Air Force Western Test Range (AFWTR)
Object type
Payload
Rocket body
Debris
Shape & HBR
Unknown shape, 0.1 m
Radar Cross Section
Small (<0.1 m²)

Expand to show TLE details & history
Last TLE update: 17 hours ago

TLE from 17 hours ago
0 OPS 4682 DEB
1 38383U 65027CL  26121.12106108 -.00000019  00000-0 -91320-4 0  9997
2 38383  90.2513  10.8951 0025945 238.4704 121.3882 12.96996160577502
Epoch: 2026-05-01T02:54Z
TLE epoch observation values (Epoch: 2026-05-01T02:54:19.677Z)
Latitude
-0.00001°
Longitude
108.25525°
Altitude
1,287.137 km
Speed
7.208 km/s
True Right ascension
00h 43m 34s
True Declination
0° 00' 00"
Sunlit
Object was in daylight at epoch
Visualization orbit readout
Latitude
Unknown
Longitude
Unknown
Altitude
Unknown
Speed
Unknown
Apparent Right ascension
Unknown
Apparent Declination
Unknown
Sunlit
N/A
Visualization observer readout
Local Sidereal Time
03:52:32
Azimuth
Unknown
Elevation
Unknown
Doppler factor
Unknown
Orbital elements
Apogee altitude
1,290.856 km
Perigee altitude
1,251.164 km
Semi-major axis
7,649.147 km
Eccentricity
0.00259
Inclination
90.2513°
RAAN
10.8951°
Arg. of periapsis
238.4704°
True anomaly
121.64157°
Mean anomaly
121.3882°
Eccentric anomaly
121.51493°
Mean motion
3.24432 °/min
Orbital period
110.96 mins
BSTAR
-0.00009132
Loading maneuver chart data...
Computing Atmospheric mass density...
Loading historical data...
Loading historical data...
Loading historical data...
Loading historical data...
Loading historical data...
Loading historical data...
Loading historical data...

Documentation

Showing up to 5 results
|